Regional Weather Roundup
Issued by NWS Wilmington, NC

Home | Current Version | Previous Version | Text Only | Print | Product List | Glossary On
Versions: 1 2 3 4 5 6 7 8 9 10 11 12 13 14 15 16 17 18 19 20 21 22 23 24 25 26 27 28 29 30 31 32 33 34 35 36 37 38 39 40 41 42 43 44 45 46 47 48 49 50
098
ASUS42 KILM 261713
RWRILM
RWRILM
REGIONAL HOURLY WEATHER ROUNDUP
NATIONAL WEATHER SERVICE WILMINGTON NC
1200 PM EST SUN FEB 26 2017

NOTE: "FAIR" INDICATES FEW OR NO CLOUDS BELOW 12,000 FEET WITH NO
SIGNIFICANT WEATHER AND/OR OBSTRUCTIONS TO VISIBILITY.

...............WFO WILMINGTON COUNTY WARNING AREA...............

......COASTAL NC AND SC COUNTIES......

CITY           SKY/WX    TMP DP  RH WIND       PRES   REMARKS
WILMINGTON     SUNNY     56  19  23 N7        30.19F
N MYRTLE BEACH SUNNY     57  19  22 N10       30.20F
MYRTLE BEACH   SUNNY     55  19  24 NW12      30.22F

......INLAND NC AND SC COUNTIES.......

CITY           SKY/WX    TMP DP  RH WIND       PRES   REMARKS
LUMBERTON      SUNNY     53  20  27 CALM      30.20F
ELIZABETHTOWN  SUNNY     53  21  28 NW5       30.20S
WHITEVILLE     SUNNY     53  20  27 N5        30.20F
FLORENCE       SUNNY     52  19  27 W5        30.22F
DARLINGTON     SUNNY     52  21  29 W7        30.22F
KINGSTREE      FAIR      55  21  26 W3        30.22S
HARTSVILLE     FAIR      52  19  28 CALM      30.21F
BENNETTSVILLE  NOT AVBL
CONWAY         FAIR      54  23  30 N5        30.21F HAZE
GEORGETOWN     FAIR      55  21  26 NW6       30.22S
MARION         FAIR      52  21  30 CALM      30.22F

....................REST OF NORTH CAROLINA......................

.........EASTERN NC.........

CITY           SKY/WX    TMP DP  RH WIND       PRES   REMARKS
CAPE HATTERAS  SUNNY     55  31  39 VRB7      30.16S
JACKSONVILLE   SUNNY     54  18  24 VRB3      30.19F
MOREHEAD CITY  SUNNY     55  27  34 NW6       30.17F
KENANSVILLE    SUNNY     52  18  25 NW7       30.19F
NEW BERN       SUNNY     53  23  31 NW8       30.18F
ELIZABETH CITY SUNNY     52  26  36 VRB6      30.16S

.........CENTRAL NC.........

CITY           SKY/WX    TMP DP  RH WIND       PRES   REMARKS
RALEIGH DURHAM SUNNY     49  14  24 VRB3      30.20S
ROCKY MOUNT    SUNNY     50  21  32 W5G16     30.18F
ROANOKE RAPIDS NOT AVBL
FAYETTEVILLE     N/A    N/A N/A N/A MISG      30.20S
HOFFMAN        SUNNY     51  19  27 N12       30.20F

.........WESTERN NC.........

CITY           SKY/WX    TMP DP  RH WIND       PRES   REMARKS
CHARLOTTE      SUNNY     50  16  25 W3        30.21F
GREENSBORO     SUNNY     46  15  28 NW10      30.19R
HICKORY        NOT AVBL
BOONE          NOT AVBL
ASHEVILLE      NOT AVBL

.....................REST OF SOUTH CAROLINA.....................

.........EASTERN SC.........

CITY           SKY/WX    TMP DP  RH WIND       PRES   REMARKS
CHARLESTON     SUNNY     60  22  23 VRB3      30.21S
BEAUFORT MCAS  MOSUNNY   60  32  34 E5        30.22F
HILTON HEAD    SUNNY     57  25  28 N3        30.23F

.........CENTRAL SC.........

CITY           SKY/WX    TMP DP  RH WIND       PRES   REMARKS
COLUMBIA       SUNNY     56  19  23 CALM      30.21F
ORANGEBURG     SUNNY     56  20  24 CALM      30.22S
SUMTER SHAW    SUNNY     55  18  23 CALM      30.19F

.........WESTERN SC.........

CITY           SKY/WX    TMP DP  RH WIND       PRES   REMARKS
GREENVILLE     NOT AVBL
ROCK HILL      SUNNY     52  20  28 W9        30.21F
ANDERSON       SUNNY     50  16  25 SW7       30.21S
CLEMSON        NOT AVBL
GREENWOOD      SUNNY     53  18  25 VRB5      30.23S


...................COASTAL AND OFFSHORE REPORTS..................

................LOCAL PIERS AND NC RESERVE................


STATION/POSITION TIME  SKY/WX   TEMP    WIND        PRES    VSBY
                                AIR SEA DIR/SP/G
                 (UTC)          (F)     (DEG/KT/KT) (MB)    (MI)
JOHNY MRCER PIER 1648            54 58  340/  8/ 11 1021.2F
NC RESRV MASNBRO 1545            58      20/  2     1021.0
OCEAN CREST PIER NOT AVBL
SPRINGMAID  PIER 1648                               1022.2F


................COASTAL AND OFFSHORE BUOYS................


STATION/POSITION TIME  SKY/WX   TEMP    WIND        PRES    VSBY
                                AIR SEA DIR/SP/G
                 (UTC)          (F)     (DEG/KT/KT) (MB)    (MI)
DIMNDSHOAL 41025 1650            51 72  340/ 12/ 16 1021.2R
WVE H/P(F/S)=  5/ 9 SWL H/P/D(F/S/D)=  5/130/ 9

CAPE LOOKOUT     1600            51     320/  7/ 10 1021.6R
ONSLOW BAY 41036 NOT AVBL
ONSLOW BAY 41064 1608            50     350/ 10/ 17 1022.1
ONSLOW BAY 41159 1613               65                N/A
WVE H/P(F/S)=  4/ 9 SWL H/P/D(F/S/D)=  2/110/11

MASNBO INL 41110 1629               58                N/A
WVE H/P(F/S)=  3/10 SWL H/P/D(F/S/D)=  2/120/11

WILM HARBR 41108 1617               58                N/A
WVE H/P(F/S)=  2/10

27SE WRITB 41037 1608            51 61  330/ 10/ 16 1021.7R
FRYING PAN 41013 1650            53 70  350/ 10/ 14 1022.5S
WVE H/P(F/S)=  4/10 SWL H/P/D(F/S/D)=  3/130/10

SUNST NRSH 41024 1608            52 60   30/  6/  8 1022.9R
CAPRS NRSH 41029 1608            53 60   50/  6/ 10 1023.3R
EDISTO     41004 1550            56 69  350/ 10/ 14 1022.7
WVE H/P(F/S)=  4/ 9 SWL H/P/D(F/S/D)=  3/120/ 9



..........OFFSHORE BUOYS BEYOND 100 NM OFFSHORE...........
.....IN A TRIANGLE---HAT TO BERMUDA TO BAHAMAS TO HAT.....


STATION/POSITION TIME  SKY/WX   TEMP    WIND        PRES    VSBY
                                AIR SEA DIR/SP/G
                 (UTC)          (F)     (DEG/KT/KT) (MB)    (MI)
150E HAT   41001 NOT AVBL
W BERMUDA  41048 1650            70 70  220/ 16/ 17 1017.5F
WVE H/P(F/S)=  5/ 8 SWL H/P/D(F/S/D)=  3/130/ 8

ATLANTIC S 41049 1650            73 74  200/  4/  6 1021.3F
WVE H/P(F/S)=  4/ 8 SWL H/P/D(F/S/D)=  5/100/ 8

E BAHAMAS  41046 1650            78 78  100/ 12/ 14 1018.5F
WVE H/P(F/S)=  4/11 SWL H/P/D(F/S/D)=  3/11

NE BAHAMAS 41047 1650            74 73   CALM  /  2 1020.3F
WVE H/P(F/S)=  5/ 8 SWL H/P/D(F/S/D)=  5/110/ 8

120E CANVRL41010 NOT AVBL

END




USA.gov is the U.S. government's official web portal to all federal, state and local government web resources and services.